Location: Altenst�hlen
(53.5567°N, 8.9425°E)
Time: 10:05:44
(UTC+00:00)

USA 238 - Pass Details

Date: 23 October 2019
Orbit: 1027 x 1185 km, 63.4° (Epoch: 07 November)

Event Time Altitude Azimuth Distance (km) Brightness Sun altitude
Rises 19:21:30 0° 246° (WSW) 3,803 7.2 -28.7°
Reaches altitude 10° 19:24:08 10° 251° (WSW) 2,867 6.5 -29.0°
Maximum altitude 19:30:49 58° 330° (NNW) 1,249 4.1 -29.9°
Enters shadow 19:33:40 35° 32° (NNE) 1,681 4.6 -30.3°
